Tracking 35237 objects as of 6-Sep-2026
HD Live streaming from Space Station
objects crossing your sky now

COSMOS 1142 DEB


COSMOS 1142 DEB is no longer on orbit


NORAD ID: 11615
Int'l Code: 1979-092E
Launch date: October 22, 1979
Source: Commonwealth of Independent States (former USSR) (CIS)
Launch site: PLESETSK MISSILE AND SPACE COMPLEX (PKMTR)
Decay date: 1979-11-21

Note: This is SATELLITE DEBRIS
Your satellite tracking list
Your tracking list is empty




NASA's NSSDC Master Catalog

Two Line Element Set (TLE):
1 11615U 79092  E 79324.91276420  .22531660 +01043-6 +01759-4 0  9992
2 11615 072.8268 151.1525 0007411 122.4450 237.7515 16.31670380004627
Source of the keplerian elements: AFSPC